FW0807 Weather Reports


Display with metric or nautical units.
time (UTC)temp
F
wind
direction
speed
MPH
gust
MPH
rain 1hr
in
rain 24hr
in
rain mn
in
humidity
%
barometer
mb
20260506210017 58 52 1.0 5.0 0.00 0.17 0.00 70 1015.3
20260506204513 58 23 3.0 9.0 0.00 0.17 0.00 67 1015.6
20260506203011 58 17 4.0 10.0 0.00 0.17 0.00 68 1015.9
20260506201512 58 27 2.0 8.0 0.00 0.17 0.00 70 1016.4
20260506200010 58 35 5.0 10.0 0.00 0.17 0.00 68 1016.7
20260506194509 57 74 3.0 8.0 0.00 0.17 0.00 70 1016.8
20260506193009 57 42 2.0 5.0 0.00 0.17 0.00 68 1017.0
20260506191508 58 350 3.0 9.0 0.00 0.17 0.00 69 1016.8
20260506190007 57 355 6.0 10.0 0.00 0.17 0.00 69 1016.7
20260506184507 58 27 5.0 10.0 0.00 0.17 0.00 68 1016.4
20260506183006 57 15 4.0 11.0 0.00 0.17 0.00 69 1016.3
20260506181505 57 18 6.0 9.0 0.00 0.17 0.00 70 1016.6
20260506180007 57 11 5.0 9.0 0.00 0.17 0.00 69 1017.2
20260506174503 57 49 5.0 12.0 0.00 0.17 0.00 70 1016.8
20260506173003 58 92 3.0 10.0 0.00 0.17 0.00 71 1016.3
20260506171501 59 347 7.0 13.0 0.00 0.17 0.00 69 1016.4
20260506170057 57 12 9.0 16.0 0.00 0.17 0.00 70 1016.8
20260506164606 58 57 5.0 12.0 0.00 0.17 0.00 71 1017.0
20260506163104 56 42 5.0 12.0 0.00 0.17 0.00 72 1017.1
20260506161614 55 33 4.0 10.0 0.00 0.17 0.00 75 1016.8
20260506160050 55 24 6.0 11.0 0.00 0.17 0.00 74 1017.1
20260506154550 54 39 3.0 11.0 0.00 0.17 0.00 78 1016.9
20260506153047 53 49 4.0 11.0 0.00 0.17 0.00 80 1016.6
20260506151542 52 20 4.0 10.0 0.00 0.17 0.00 83 1016.9
20260506150041 51 317 2.0 10.0 0.00 0.17 0.00 84 1016.8
20260506144539 51 346 5.0 12.0 0.00 0.17 0.00 85 1016.8
20260506143036 50 29 3.0 11.0 0.00 0.17 0.00 86 1016.9
20260506141531 50 15 7.0 11.0 0.00 0.17 0.00 88 1016.6
20260506140026 49 355 4.0 9.0 0.00 0.17 0.00 89 1017.0
20260506134522 49 33 3.0 8.0 0.00 0.17 0.00 90 1016.8
20260506133018 48 26 2.0 5.0 0.00 0.17 0.00 91 1016.6
20260506131518 48 340 3.0 5.0 0.00 0.17 0.00 92 1016.3
20260506130013 47 40 2.0 6.0 0.00 0.17 0.00 93 1016.1
20260506124508 47 22 3.0 7.0 0.00 0.18 0.00 93 1015.7
20260506123004 47 17 4.0 8.0 0.00 0.18 0.00 94 1015.2
20260506121503 47 5 3.0 6.0 0.00 0.18 0.00 94 1014.8
20260506120108 47 30 3.0 6.0 0.00 0.18 0.00 93 1014.6
20260506114557 46 332 1.0 4.0 0.00 0.33 0.00 93 1014.8
20260506113057 46 36 2.0 4.0 0.00 0.33 0.00 93 1014.1
20260506111553 46 5 2.0 4.0 0.00 0.33 0.00 93 1013.8
20260506110057 46 336 3.0 5.0 0.00 0.33 0.00 93 1014.0
20260506104553 46 5 3.0 10.0 0.00 0.50 0.00 93 1013.6
20260506103055 46 350 2.0 8.0 0.00 0.50 0.00 93 1013.3
20260506101556 46 46 4.0 9.0 0.00 0.50 0.00 94 1012.7
20260506094543 46 26 3.0 10.0 0.00 0.50 0.00 94 1012.2
20260506093045 47 12 4.0 11.0 0.00 0.50 0.00 95 1012.6
20260506091540 47 344 3.0 8.0 0.00 0.50 0.00 95 1013.0
20260506090038 47 13 4.0 9.0 0.00 0.50 0.00 95 1013.0
20260506084554 47 355 4.0 9.0 0.00 0.50 0.00 95 1012.8
20260506083034 47 36 4.0 8.0 0.00 0.50 0.00 95 1012.3
20260506081540 47 38 2.0 8.0 0.00 0.50 0.00 95 1012.2
20260506073038 47 343 4.0 8.0 0.00 0.50 0.00 96 1011.8
20260506071525 47 355 4.0 9.0 0.00 0.50 0.00 96 1011.6
20260506061520 47 355 3.0 10.0 0.00 0.50 0.00 96 1011.1
20260506044524 48 69 4.0 9.0 0.00 0.50 0.50 96 1010.8
20260506043009 48 347 5.0 12.0 0.00 0.50 0.50 96 1011.0
20260506041506 48 14 4.0 11.0 0.00 0.50 0.50 96 1010.9
20260506040003 49 27 3.0 11.0 0.00 0.50 0.50 96 1010.6
20260506034628 50 24 3.0 11.0 0.00 0.50 0.50 96 1010.3
20260506033101 50 5 5.0 10.0 0.01 0.50 0.50 96 1009.9
20260506031553 51 339 6.0 12.0 0.14 0.50 0.50 96 1009.8
20260506030052 51 340 5.0 14.0 0.16 0.50 0.50 96 1009.6
20260506024549 51 34 5.0 11.0 0.16 0.50 0.50 96 1009.3
20260506023103 52 18 4.0 13.0 0.15 0.49 0.49 96 1008.9
20260506021540 53 355 4.0 11.0 0.02 0.36 0.36 96 1008.5
20260506020039 54 329 6.0 15.0 0.00 0.34 0.34 96 1008.2
20260506014534 54 355 6.0 11.0 0.01 0.34 0.34 95 1007.8
20260506013031 55 350 6.0 12.0 0.01 0.34 0.34 95 1007.9
20260506011528 56 47 5.0 10.0 0.01 0.34 0.34 95 1007.9
20260506010026 57 51 3.0 6.0 0.01 0.34 0.34 96 1007.0
20260506004534 57 37 5.0 11.0 0.00 0.33 0.33 95 1006.8
20260506003036 58 15 5.0 10.0 0.00 0.33 0.33 95 1006.5
20260506001519 58 332 4.0 11.0 0.00 0.33 0.33 95 1006.3
20260506000017 59 30 6.0 12.0 0.00 0.33 0.33 95 1006.2
20260505234525 60 19 8.0 15.0 0.00 0.33 0.33 94 1005.8
20260505233012 61 349 6.0 11.0 0.00 0.33 0.33 94 1006.0
20260505231515 63 39 5.0 10.0 0.00 0.33 0.33 93 1005.9
20260505230012 66 33 5.0 9.0 0.00 0.33 0.33 93 1005.0
20260505224511 68 147 0.0 1.0 0.00 0.33 0.33 95 1005.1
20260505223009 68 147 0.0 3.0 0.00 0.33 0.33 94 1005.2
20260505221512 68 178 1.0 5.0 0.00 0.33 0.33 94 1005.5
20260505220020 68 209 0.0 2.0 0.00 0.33 0.33 94 1005.5
20260505214508 68 190 1.0 3.0 0.00 0.33 0.33 94 1005.2
20260505213006 67 169 0.0 0.0 0.00 0.33 0.33 94 1004.7
20260505211506 67 205 0.0 2.0 0.00 0.33 0.33 94 1005.2